Location: ???????
(55.4362°N, 38.1183°E)
Time: 02:04:27
(UTC+00:00)

Cosmos 1932 - Pass Details

Date: 31 October 2021
Orbit: 942 x 987 km, 65.0° (Epoch: 03 December)

Event Time Altitude Azimuth Distance (km) Brightness Sun altitude
Rises 16:41:49 0° 306° (NW) 3,623 8.5 -24.6°
Reaches altitude 10° 16:46:35 10° 273° (W) 2,678 7.8 -25.2°
Maximum altitude 16:48:13 11° 258° (WSW) 2,599 7.6 -25.5°
Drops below altitude 10° 16:49:51 10° 242° (WSW) 2,680 7.4 -25.7°
Sets 16:54:40 0° 210° (SSW) 3,630 7.7 -26.3°
